www.pogodaiklimat.ru

Погода и климат >> Архив погоды >> Индия >> Pune


ПОГОДА в Pune

  • Прогноз погоды в Pune
  • Монитор погоды в Pune
  • Климат города

АРХИВ ПОГОДЫ в Pune

Время (UTC), дата Ветер
(напр.,м/с)
 
Видим.   Явления Облачность Т
(С)
Тd
(С)
f
(%)
Тe
(С)
Тes
(С)
Комфортность P
(гПа)
Po
(гПа)
Тmin
(С)
Tmax
(С)
R
(мм)
R24
(мм)
S
(см)
00 10.08 З 1 4000 м слабая морось {дождь} 9/6 660 м
[Frnb Ac trans]
+22.2 +21.7 97 +29 +29 очень
душно
1005.9 943.8 0.8
03 10.08 З 1 10 км {морось} 9/5 800 м
[Sc Ac trans]
+24.0 +22.0 89 +31 +33 очень
душно
1007.5 945.5 +21.8 0.8
06 10.08 З 2 10 км {морось} 9/5 800 м
[Cu Sc Ac trans]
+26.6 +21.4 73 +34 +40 очень
душно
1007.2 945.9
09 10.08 З 2 10 км {морось} 9/9 660 м
[Frnb]
+26.6 +22.0 76 +34 +36 очень
душно
1005.6 944.4 0.0
12 10.08 З 1 10 км {дождь, морось} 8/6 600 м
[Frnb Ac trans]
+25.6 +21.2 77 +32 +33 очень
душно
1005.2 943.8 +28.7 0.6
15 10.08 З 1 4000 м 6/4 660 м
[Frnb Ac trans]
+23.4 +21.3 88 +31 +31 очень
душно
1007.4 945.4 0.6
18 10.08 З 2 4000 м 5/4 660 м
[Frnb Ac trans]
+23.2 +21.1 88 +31 +31 очень
душно
1008.0 946.0 0.6
21 10.08 З 1 4000 м 5/3 800 м
[Sc Ac trans]
+22.8 +21.0 90 +30 +30 очень
душно
1006.3 944.2 0.6
00 11.08 З 1 4000 м слабый дождь 8/6 600 м
[Frnb Ac trans]
+22.6 +22.0 96 +30 +30 очень
душно
1006.7 944.6 0.8
03 11.08 З 1 10 км {морось} 8/6 600 м
[Frnb Ci fib]
+24.0 +22.0 89 +31 +34 очень
душно
1008.2 946.2 +22.0 0.8
06 11.08 З 2 10 км 8/6 600 м
[Frnb Ac trans]
+27.2 +21.7 72 +35 +41 очень
душно
1007.6 946.5
12 11.08 З 1 10 км слабая морось {дождь} 9/8 660 м
[Frnb Ac trans]
+24.6 +22.6 89 +32 +33 очень
душно
1006.3 944.6 +28.7 0.1
15 11.08 З 2 4000 м {морось} 3/3 600 м
[Sc]
+23.6 +21.2 86 +30 +30 очень
душно
1008.6 946.6 0.1
18 11.08 З 2 4000 м 3/3 800 м
[Sc Ac trans]
+22.6 +21.7 95 +30 +30 очень
душно
1009.2 947.3 0.1
21 11.08 З 1 4000 м {морось} 6/3 600 м
[Sc Ac trans]
+22.4 +21.5 95 +30 +30 очень
душно
1007.4 945.2 0.1
00 12.08 З 1 4000 м {морось} 6/3 800 м
[Sc Ac trans]
+22.2 +21.6 96 +29 +29 очень
душно
1007.9 945.7 0.2
03 12.08 З 1 10 км слабая морось 9/9 600 м
[Frnb]
+23.8 +22.1 90 +31 +32 очень
душно
1008.9 949.6 +21.5
06 12.08 З 2 10 км 8/4 660 м
[Frnb Ac trans Ci fib]
+26.8 +21.6 73 +34 +42 очень
душно
1008.6 947.3
09 12.08 З 2 10 км 9/6 800 м
[Cu Sc Ac trans]
+28.4 +22.1 69 +37 +41 очень
душно
1006.5 945.6
12 12.08 З 2 10 км 8/5 800 м
[Cu Sc Ac trans]
+26.7 +21.3 72 +34 +35 очень
душно
1006.1 944.9 +28.6
15 12.08 З 1 4000 м 3/3 800 м
[Sc]
+23.6 +20.6 83 +29 +29 душно 1008.8 946.8
18 12.08 штиль 0 4000 м 4/4 800 м
[Sc]
+22.8 +21.0 90 +30 +30 очень
душно
1009.4 947.1
21 12.08 штиль 0 4000 м 5/5 800 м
[Sc]
+22.6 +21.2 92 +30 +30 очень
душно
1009.9 944.2 0.6
00 13.08 З 1 4000 м 6/5 800 м
[Sc]
+22.4 +21.4 94 +29 +29 очень
душно
1010.3 948.0
03 13.08 З 2 10 км 6/3 800 м
[Sc Ci fib]
+25.0 +19.9 73 +31 +35 очень
душно
1009.0 947.1 +21.6
06 13.08 З 2 10 км 6/5 800 м
[Cu Sc Ci fib]
+27.8 +19.1 59 +33 +43 очень
душно
1009.0 947.7
09 13.08 З 3 10 км 8/5 800 м
[Cu Sc Ac trans]
+27.2 +20.4 66 +34 +39 очень
душно
1007.5 946.4
12 13.08 З 3 10 км {морось} 8/5 660 м
[Frnb Ac trans]
+26.0 +22.0 79 +34 +34 очень
душно
1007.7 946.1 +29.3 0.0
15 13.08 З 1 4000 м 4/4 800 м
[Sc]
+24.2 +20.7 81 +30 +30 очень
душно
1009.8 947.9 0.0
18 13.08 штиль 0 4000 м 4/4 800 м
[Sc]
+23.2 +21.0 87 +31 +31 очень
душно
1010.4 948.2 0.0
21 13.08 З 1 4000 м 4/4 800 м
[Sc]
+22.6 +21.4 93 +30 +30 очень
душно
1009.0 946.8 0.0
00 14.08 З 1 4000 м 4/4 800 м
[St As op Cs]
+22.6 +21.4 93 +30 +30 очень
душно
1009.0 946.8 0.0
03 14.08 З 1 10 км 9/6 660 м
[Frnb Ac trans]
+23.2 +21.4 90 +31 +33 очень
душно
1011.0 948.9 +21.9 0.0
06 14.08 З 1 10 км 8/5 800 м
[Cu Sc Ac trans]
+27.8 +21.4 68 +35 +44 очень
душно
1009.7 948.4
09 14.08 З 1 10 км 9/4 800 м
[Cu Sc Ac trans]
+27.2 +20.4 66 +34 +40 очень
душно
1008.5 947.2
12 14.08 З 2 10 км 9/3 800 м
[Sc Ac trans]
+25.0 +19.9 73 +31 +31 очень
душно
1008.4 946.6 +29.1
15 14.08 З 1 4000 м 9/4 800 м
[Sc Ac trans]
+23.6 +20.9 85 +30 +30 очень
душно
1010.6 948.5
18 14.08 З 1 4000 м 8/3 800 м
[Sc Ac trans]
+23.0 +20.3 85 +30 +30 очень
душно
1011.1 948.8
21 14.08 штиль 0 4000 м 8/3 800 м
[Sc Ac trans]
+22.6 +21.1 91 +30 +30 очень
душно
1009.6 947.3
00 15.08 штиль 0 4000 м 9/4 800 м
[Sc Ac trans]
+22.6 +21.1 91 +30 +30 очень
душно
1009.8 947.5
03 15.08 З 1 10 км 9/3 800 м
[Sc Ac trans]
+23.8 +21.5 87 +30 +33 очень
душно
1010.7 948.6 +22.2
06 15.08 З 1 10 км 9/8 660 м
[Frnb Ac trans]
+26.0 +21.6 77 +33 +37 очень
душно
1010.1 948.4
09 15.08 З 1 10 км {дождь} 8/5 800 м
[Cu Sc Ac trans]
+28.8 +21.9 66 +37 +44 очень
душно
1006.6 945.7 0.0
12 15.08 З 1 10 км 9/5 700 м
[Cu Sc Ac trans]
+26.0 +21.6 77 +33 +34 очень
душно
1007.0 945.4 +29.4 0.0
15 15.08 З 2 4000 м 6/3 800 м
[Sc Ac trans]
+23.8 +20.8 83 +30 +30 очень
душно
1008.9 946.9 0.0
18 15.08 З 1 4000 м 4/3 800 м
[Sc Ac trans]
+23.2 +21.7 91 +31 +31 очень
душно
1009.2 947.1 0.0
21 15.08 З 1 4000 м 4/1 800 м
[Sc Ac trans Ci fib]
+22.8 +21.3 91 +30 +30 очень
душно
1008.5 946.3 0.0
00 16.08 З 2 4000 м 4/1 800 м
[Sc Ci fib]
+22.6 +20.8 90 +30 +30 очень
душно
1008.2 946.0 0.0
03 16.08 З 1 10 км 5/4 800 м
[Sc Ci fib]
+24.4 +21.5 84 +31 +35 очень
душно
1009.0 947.1 +21.8 0.0
06 16.08 З 1 10 км 8/5 800 м
[Cu Sc Ac trans]
+28.2 +20.6 63 +35 +43 очень
душно
1007.8 946.9
09 16.08 З 1 10 км 9/5 800 м
[Cu Sc Ac trans]
+26.0 +20.4 71 +32 +37 очень
душно
1006.5 945.0
12 16.08 З 1 10 км 9/6 660 м
[Frnb Ac trans]
+25.2 +22.0 82 +32 +33 очень
душно
1005.2 943.8 +28.8
15 16.08 З 1 4000 м 5/4 800 м
[Sc Ac trans]
+24.4 +21.2 82 +31 +31 очень
душно
1007.1 945.3
18 16.08 З 1 4000 м 4/3 800 м
[Sc As op]
+23.2 +21.1 88 +31 +31 очень
душно
1007.7 945.7
21 16.08 З 1 4000 м 3/3 800 м
[Sc]
+22.0 +20.5 91 +28 +28 душно 1006.0 943.7

 

Местоположение метеостанции Pune (Maharashtra, Индия): широта 18.53 долгота 73.85 высота над уровнем моря 559 м.

В архиве по умолчанию представлена погода в Pune за последнюю неделю. Архивные данные за месяц целиком и за предыдущие месяцы, начиная с января 2011 года, Вы можете получить, выбрав интересующий диапазон дат из раскрывающегося списка и нажав кнопку "Ввод!".

Внимание! Время в таблицах - всемирное. Для получения местного времени необходимо прибавить поправку, которая в Pune равна 5.5 ч.

Смотрите также архив погоды в соседних городах и на ближайших метеорологических станциях:

Погода в Bhira (Maharashtra, Индия) (48 км)
Погода в Mahabaleshwar (Maharashtra, Индия) (69 км)
Погода в Alibag (Maharashtra, Индия) (104 км)
Погода в Harnai (Maharashtra, Индия) (112 км)
Погода в Satara (Maharashtra, Индия) (114 км)
Погода в Mumbai Colaba (Maharashtra, Индия) (116 км)
Погода в Ahmednagar (Maharashtra, Индия) (117 км)
Погода в Mumbai (Maharashtra, Индия) (124 км)
Погода в Jeur (Maharashtra, Индия) (141 км)
Погода в Nashik (Maharashtra, Индия) (164 км)

Пояснения к столбцам:

Ветер - указаны скорость ветра в м/с - средняя за 10 мин, порывы в срок и между сроками (в фигурных скобках) и направление, откуда дует ветер: С - северный, СВ - северо-восточный, В - восточный, ЮВ - юго-восточный, Ю - южный, ЮЗ - юго-западный, З - западный, СЗ - северо-западный.
Видимость - горизонтальная дальность видимости в метрах или километрах. При видимости от 1 до 10 км при отсутствии осадков обычно наблюдается дымка, при ухудшении видимости до 1 км и менее - туман. В сухую погоду видимость может ухудшаться дымом, пылью или мглою.
Явления - указаны атмосферные явления, наблюдавшиеся в срок или в последний час перед сроком; фигурными скобками обозначены явления, наблюдавшиеся между сроками (за 1-3 часа до срока); квадратными скобками обозначены град или гололедные отложения с указанием их диаметра в мм.
Облачность - указаны через наклонную черту общая и нижняя облачность в баллах и высота нижней границы облаков в метрах; квадратными скобками обозначены формы облаков: Ci - перистые, Cs - перисто-слоистые, Cc - перисто-кучевые, Ac - высококучевые, As - высокослоистые, Sc - слоисто-кучевые, Ns - слоисто-дождевые, Cu - кучевые, Cb - кучево-дождевые. Подробнее классификацию облаков см. в Атласе облаков (PDF).
T - Температура воздуха - температура, измеренная на высоте 2 м над землей.
Td - Температура точки росы - температура, при понижении до которой содержащийся в воздухе водяной пар достигнет насыщения.
f - Относительная влажность воздуха - влажноcть воздуха, измеренная на высоте 2 м над землей.
Te - Эффективная температура - температура, которую ощущает одетый по сезону человек в тени. Характеристика душности погоды. При расчете учитывается влияние влажности воздуха и скорости ветра на теплоощущения человека.
Tes - Эффективная температура на солнце - температура, которую ощущает человек, с поправкой на солнечный нагрев. Характеристика знойности погоды. Зависит от высоты солнца над горизонтом, облачности и скорости ветра. Ночью, в пасмурную погоду, а также при ветре 12 м/с и более поправка равна нулю.
P - Атмосферное давление - приведенное к уровню моря атмосферное давление.
Po - Атмосферное давление - измеренное на уровне метеостанции атмосферное давление.
Tmin - Минимальная температура - минимум температуры воздуха на высоте 2 м над землей.
Tmax - Максимальная температура - максимум температуры воздуха на высоте 2 м над землей.
R - Количество осадков - Количество выпавших осадков за период времени, мм. При наведении курсора мыши на число - период времени, за который выпало указанное количество осадков.
R24 - Количество осадков - Количество выпавших осадков за 24 часа, мм.
S - Снежный покров - Высота снежного покрова, см. При наведении курсора мыши на число - состояние снежного покрова и степень покрытия местности в баллах.